Lid_Strength_Index
3 3 3 3 2 2 3 3 3 2 2 3 3 3 3 3 3 2 2 2 3 2 2 2 2 2 3 4 5 1 -2 -1 -0 2 4 3 4 5 7 6 5 6 6 5 5 5 5
4 4 4 4 3 3 3 3 3 3 3 3 3 2 2 3 3 3 3 3 3 2 2 2 1 2 4 6 3 2 1 0 1 3 2 3 4 3 5 5 6 5 5 5 5 5 5
4 4 4 4 4 4 4 4 3 3 3 3 3 3 3 3 3 3 3 3 3 1 1 1 1 2 3 4 3 2 2 1 1 2 3 2 2 4 4 5 4 4 6 5 5 5 6
4 4 4 4 4 4 4 4 4 4 4 3 3 3 3 3 3 3 4 4 3 1 1 1 1 2 5 3 2 3 2 1 0 0 2 1 1 3 4 3 4 6 6 9 6 5 5
3 3 3 3 3 3 4 4 4 4 4 4 4 3 3 3 4 4 4 4 3 1 1 1 1 2 5 3 5 4 2 2 1 1 1 1 2 4 4 7 7 7 9 8 7 5 6
3 3 3 3 3 3 3 4 4 4 4 4 4 4 4 4 4 5 5 4 2 2 1 1 1 4 4 6 5 4 3 2 2 3 3 4 4 6 6 7 11 9 9 8 8 6 6
2 2 3 3 2 2 2 3 3 3 4 4 4 4 4 4 5 5 5 3 4 4 4 6 6 6 6 5 4 5 3 3 2 4 7 5 7 9 7 6 6 7 8 8 7 5 6
2 2 2 3 3 2 2 2 2 3 3 3 4 4 5 5 5 5 5 5 6 5 8 5 6 6 6 5 7 5 2 4 5 7 6 6 9 6 5 6 6 7 8 8 7 6 6
2 2 2 2 2 3 3 3 3 3 2 3 4 4 5 5 5 5 4 5 3 4 8 6 6 7 6 6 7 7 4 4 5 7 7 8 7 5 6 7 7 7 8 8 8 6 6
2 2 2 2 2 3 3 3 3 3 3 2 3 4 4 5 6 4 4 3 3 4 10 9 8 7 6 6 8 5 5 5 6 7 6 7 5 6 7 7 7 9 6 7 7 8 10
2 2 2 2 3 3 3 3 3 3 3 3 3 3 5 5 5 4 4 3 3 5 13 8 8 5 5 7 7 7 5 6 8 7 6 7 7 7 7 7 6 8 6 7 7 8 8
2 2 3 3 3 3 3 3 3 3 3 4 4 4 5 3 4 3 3 2 3 9 13 9 7 8 7 6 6 6 6 5 5 7 6 7 5 5 6 5 6 5 6 7 7 8 11
2 2 2 3 3 3 3 3 3 3 4 4 4 5 5 3 3 1 1 2 8 11 6 9 8 7 7 7 7 7 7 7 8 10 9 8 7 6 5 7 6 6 8 12 13 12 13
2 2 3 3 3 3 2 2 3 4 4 4 5 5 1 0 -0 0 1 6 12 8 8 7 7 7 8 6 7 7 7 8 6 7 8 10 11 7 5 6 8 7 8 11 15 13 12
2 3 3 2 2 2 2 2 2 3 3 3 3 -0 1 -0 -1 0 4 10 9 8 7 7 7 8 8 7 8 7 7 8 6 6 9 10 10 6 6 5 6 8 9 7 10 9 11
2 3 2 2 2 2 2 1 1 2 2 3 2 2 1 -1 -1 2 6 9 7 7 7 7 9 7 9 8 8 8 8 6 7 6 5 8 11 7 6 5 5 7 6 10 9 14 15
3 2 2 1 2 2 1 1 1 1 2 3 2 4 1 -1 -0 4 8 8 7 5 6 7 8 8 8 8 8 8 8 7 6 6 6 7 9 9 7 8 8 8 9 8 9 10 13
3 2 1 1 1 1 1 1 1 2 3 1 2 6 1 -0 6 5 8 7 8 6 5 6 6 7 8 7 8 8 8 7 5 6 8 7 8 11 9 7 6 6 8 8 12 13 11
2 1 1 1 1 1 1 1 1 3 3 3 4 4 0 1 8 7 6 6 6 6 6 6 7 6 6 8 10 8 7 5 5 6 7 7 9 12 11 8 7 8 7 7 8 9 12
2 1 1 1 1 1 1 2 2 3 3 3 4 7 4 3 4 6 7 7 7 5 6 6 6 6 7 8 7 8 8 6 5 6 5 5 9 10 13 10 8 9 8 8 8 10 10
1 1 1 1 1 1 1 2 2 2 3 2 3 5 4 8 6 6 6 6 8 8 6 6 7 8 8 10 9 9 7 7 6 5 6 6 10 9 9 8 9 9 9 8 9 8 10
1 1 1 1 1 1 1 1 2 2 3 2 5 5 4 5 5 6 7 8 8 8 7 7 9 8 8 9 9 10 8 7 8 6 7 7 12 9 10 9 9 10 9 9 8 8 8
1 1 2 2 1 1 1 2 1 2 3 2 2 2 3 6 6 7 8 8 8 7 6 6 7 8 8 8 6 6 5 5 6 7 8 9 11 12 14 9 10 12 9 9 8 7 8
1 1 2 1 1 1 2 1 1 1 2 1 2 3 4 7 6 7 7 7 7 7 8 6 6 8 6 4 4 5 5 5 5 6 5 9 11 12 14 12 18 10 6 7 8 8 7
1 1 1 1 1 1 1 1 1 1 2 1 1 3 4 7 6 6 6 6 6 6 6 7 6 5 4 6 8 9 9 9 8 6 6 6 9 13 15 15 11 9 7 8 9 8 6
1 1 1 2 1 1 1 1 1 1 2 1 1 -0 3 6 7 5 6 6 7 7 7 7 4 4 5 7 9 13 14 12 12 10 6 7 7 12 12 16 17 9 7 5 6 11 6
1 1 1 1 1 1 1 1 1 1 1 1 0 -1 2 6 4 4 6 7 5 6 7 6 6 6 5 9 12 14 14 12 15 14 12 12 11 14 14 14 11 7 6 5 12 10 6
2 1 1 2 1 1 1 1 1 0 1 1 0 -1 2 5 4 3 3 4 4 5 8 6 7 7 7 11 12 12 13 12 13 11 12 13 14 13 13 15 16 6 7 10 8 6 5
2 1 1 2 1 1 1 2 1 1 1 1 2 -1 -1 3 4 1 1 1 2 2 4 5 6 6 6 8 9 10 12 11 12 16 9 14 12 14 13 12 7 6 7 5 5 6 5